Boulder City, NV

8:52 PM PDT on July 27, 2017 (GMT -0700)
Boulder City

Weather History for KBVU - October, 2012

Change the Weather History Date:

Monday, October 22, 2012

  Actual Average (KLAS) Record (KLAS)
Temperature  
Mean Temperature 70 °F -  
Max Temperature 80 °F 77 °F 92 °F (2003)
Min Temperature 60 °F 52 °F 38 °F (1996)
Cooling Degree Days 5    
Growing Degree Days 20 (Base 50)    
Moisture  
Dew Point 40 °F    
Average Humidity 35    
Maximum Humidity 49    
Minimum Humidity 15    
Precipitation  
Precipitation 0.00 in - - ()
Sea Level Pressure  
Sea Level Pressure 29.80 in    
Wind  
Wind Speed 10 mph (South)    
Max Wind Speed 28 mph    
Max Gust Speed 43 mph    
Visibility 10 miles    
Events      
Averages and records for this station are not official NWS values.
T = Trace of Precipitation, MM = Missing Value Source: NWS Daily Summary

Daily Weather History Graph

Daily Weather History Graph

Search for Another Location

Airport or City:

Trip Planner

Search our weather history database for the weather conditions in past years. The results will help you decide how hot, cold, wet, or windy it might be!

Date:

Astronomy

Oct. 22, 2012 Rise Set
Actual Time 6:52 AM PDT 5:54 PM PDT
Civil Twilight 6:26 AM PDT 6:20 PM PDT
Nautical Twilight 5:56 AM PDT 6:50 PM PDT
Astronomical Twilight 5:27 AM PDT 7:19 PM PDT
Moon 1:53 PM PDT (10/22) No Moon Set
Length of Visible Light 11h 53m
Length of Day
11h 01m
First Quarter, 57% of the Moon is Illuminated
Oct 22
First Quarter
Oct 29
Full
Nov 6
Last Quarter
Nov 13
New
Nov 20
First Quarter

Hourly Weather History & Observations

Time (PDT) Temp. Dew Point Humidity Pressure Visibility Wind Dir Wind Speed Gust Speed Precip Events Conditions
12:15 AM 68.0 °F 39.2 °F 35% 29.78 in 10.0 mi SSW 8.1 mph - N/A   Clear
12:35 AM 66.2 °F 41.0 °F 40% 29.78 in 10.0 mi Calm Calm - N/A   Clear
12:55 AM 64.4 °F 41.0 °F 42% 29.78 in 10.0 mi Calm Calm - N/A   Clear
1:15 AM 64.4 °F 41.0 °F 42% 29.78 in 10.0 mi Calm Calm - N/A   Clear
1:55 AM 64.4 °F 42.8 °F 45% 29.78 in 10.0 mi South 3.5 mph - N/A   Clear
2:15 AM 64.4 °F 44.6 °F 49% 29.78 in 10.0 mi SSE 8.1 mph - N/A   Clear
2:35 AM 64.4 °F 42.8 °F 45% 29.78 in 10.0 mi SSW 5.8 mph - N/A   Clear
2:55 AM 62.6 °F 41.0 °F 45% 29.78 in 10.0 mi SW 6.9 mph - N/A   Clear
3:15 AM 62.6 °F 41.0 °F 45% 29.78 in 10.0 mi Calm Calm - N/A   Clear
3:35 AM 62.6 °F 42.8 °F 48% 29.78 in 10.0 mi WSW 3.5 mph - N/A   Clear
3:55 AM 64.4 °F 42.8 °F 45% 29.78 in 10.0 mi SW 6.9 mph - N/A   Clear
4:15 AM 64.4 °F 42.8 °F 45% 29.78 in 10.0 mi SSW 12.7 mph - N/A   Clear
4:35 AM 64.4 °F 42.8 °F 45% 29.78 in 10.0 mi SSW 12.7 mph - N/A   Clear
5:15 AM 60.8 °F 41.0 °F 48% 29.78 in 10.0 mi South 5.8 mph - N/A   Clear
5:35 AM 62.6 °F 41.0 °F 45% 29.79 in 10.0 mi South 10.4 mph - N/A   Clear
5:55 AM 62.6 °F 41.0 °F 45% 29.80 in 10.0 mi SSW 10.4 mph - N/A   Clear
6:15 AM 62.6 °F 41.0 °F 45% 29.80 in 10.0 mi SSW 5.8 mph - N/A   Clear
6:35 AM 62.6 °F 39.2 °F 42% 29.80 in 10.0 mi South 9.2 mph - N/A   Clear
6:55 AM 62.6 °F 35.6 °F 37% 29.80 in 10.0 mi South 15.0 mph 18.4 mph N/A   Clear
7:15 AM 62.6 °F 35.6 °F 37% 29.81 in 10.0 mi South 11.5 mph - N/A   Unknown
7:35 AM 64.4 °F 35.6 °F 34% 29.83 in 9.0 mi SW 5.8 mph - N/A   Clear
7:55 AM 64.4 °F 33.8 °F 32% 29.84 in 10.0 mi SW 4.6 mph - N/A   Clear
8:15 AM 66.2 °F 37.4 °F 35% 29.83 in 10.0 mi South 15.0 mph 19.6 mph N/A   Clear
8:35 AM 68.0 °F 37.4 °F 33% 29.84 in 10.0 mi SSW 10.4 mph - N/A   Unknown
8:55 AM 68.0 °F 39.2 °F 35% 29.84 in 10.0 mi South 15.0 mph 19.6 mph N/A   Clear
9:15 AM 69.8 °F 41.0 °F 35% 29.84 in 10.0 mi South 19.6 mph 23.0 mph N/A   Clear
9:35 AM 69.8 °F 44.6 °F 40% 29.85 in 10.0 mi South 19.6 mph 28.8 mph N/A   Clear
9:55 AM 71.6 °F 44.6 °F 38% 29.86 in 10.0 mi South 19.6 mph 25.3 mph N/A   Clear
10:15 AM 71.6 °F 44.6 °F 38% 29.86 in 10.0 mi SSE 24.2 mph 27.6 mph N/A   Clear
10:35 AM 71.6 °F 46.4 °F 41% 29.86 in 10.0 mi SSE 23.0 mph 31.1 mph N/A   Clear
10:55 AM 73.4 °F 46.4 °F 38% 29.86 in 10.0 mi SSE 20.7 mph 31.1 mph N/A   Clear
11:15 AM 73.4 °F 46.4 °F 38% 29.86 in - SSE 20.7 mph - N/A   Unknown
11:35 AM 75.2 °F 44.6 °F 34% 29.85 in 10.0 mi South 21.9 mph 31.1 mph N/A   Clear
11:55 AM 77.0 °F 37.4 °F 24% 29.84 in 10.0 mi South 19.6 mph 25.3 mph N/A   Unknown
12:15 PM 77.0 °F 37.4 °F 24% 29.83 in 10.0 mi South 17.3 mph 29.9 mph N/A   Clear
12:35 PM 77.0 °F 39.2 °F 26% 29.82 in 10.0 mi South 15.0 mph 26.5 mph N/A   Clear
12:55 PM 78.8 °F 37.4 °F 23% 29.82 in 10.0 mi South 12.7 mph 24.2 mph N/A   Partly Cloudy
1:15 PM 77.0 °F 46.4 °F 34% 29.81 in 10.0 mi South 19.6 mph 34.5 mph N/A   Clear
1:35 PM 77.0 °F 46.4 °F 34% 29.80 in 10.0 mi SSW 21.9 mph 35.7 mph N/A   Clear
1:55 PM 77.0 °F 44.6 °F 32% 29.80 in 9.0 mi South 16.1 mph 42.6 mph N/A   Clear
2:15 PM 80.6 °F 32.0 °F 17% 29.79 in 10.0 mi South 23.0 mph 28.8 mph N/A   Clear
2:35 PM 80.6 °F 33.8 °F 18% 29.79 in 10.0 mi South 16.1 mph 32.2 mph N/A   Clear
2:55 PM 77.0 °F 44.6 °F 32% 29.78 in 10.0 mi South 23.0 mph 29.9 mph N/A   Clear
3:15 PM 77.0 °F 46.4 °F 34% 29.78 in 10.0 mi SSE 27.6 mph 35.7 mph N/A   Clear
3:35 PM 75.2 °F 44.6 °F 34% 29.77 in 10.0 mi SSE 27.6 mph - N/A   Clear
3:55 PM 75.2 °F 44.6 °F 34% 29.77 in 10.0 mi SSW 13.8 mph 32.2 mph N/A   Clear
4:15 PM 80.6 °F 28.4 °F 15% 29.77 in 10.0 mi SW 20.7 mph 28.8 mph N/A   Clear
4:35 PM 80.6 °F 28.4 °F 15% 29.77 in 10.0 mi SSW 20.7 mph 28.8 mph N/A   Clear
4:55 PM 78.8 °F 28.4 °F 16% 29.76 in 10.0 mi SSW 20.7 mph 28.8 mph N/A   Clear
5:15 PM 77.0 °F 32.0 °F 19% 29.76 in 10.0 mi SW 16.1 mph - N/A   Clear
5:35 PM 75.2 °F 32.0 °F 21% 29.77 in 10.0 mi South 11.5 mph 19.6 mph N/A   Clear
5:55 PM 73.4 °F 42.8 °F 33% 29.77 in 10.0 mi South 16.1 mph - N/A   Clear
6:15 PM 71.6 °F 46.4 °F 41% 29.77 in 10.0 mi SSE 15.0 mph - N/A   Clear
6:35 PM 71.6 °F 44.6 °F 38% 29.78 in 10.0 mi SSE 16.1 mph - N/A   Clear
6:55 PM 71.6 °F 42.8 °F 35% 29.79 in 10.0 mi South 8.1 mph - N/A   Clear
7:15 PM 69.8 °F 37.4 °F 31% 29.79 in 10.0 mi South 9.2 mph - N/A   Clear
7:35 PM 71.6 °F 33.8 °F 25% 29.79 in 10.0 mi South 12.7 mph - N/A   Clear
7:55 PM 69.8 °F 33.8 °F 27% 29.80 in 10.0 mi South 9.2 mph - N/A   Clear
8:15 PM 69.8 °F 35.6 °F 28% 29.80 in 10.0 mi South 6.9 mph - N/A   Clear
8:35 PM 68.0 °F 37.4 °F 33% 29.81 in 10.0 mi South 4.6 mph - N/A   Clear
8:55 PM 68.0 °F 37.4 °F 33% 29.81 in 10.0 mi SSE 6.9 mph - N/A   Clear
9:15 PM 66.2 °F 39.2 °F 37% 29.82 in 10.0 mi South 5.8 mph - N/A   Clear
9:35 PM 68.0 °F 39.2 °F 35% 29.82 in 10.0 mi SW 15.0 mph 23.0 mph N/A   Clear
10:15 PM 66.2 °F 41.0 °F 40% 29.82 in 10.0 mi SSW 12.7 mph 21.9 mph N/A   Clear
10:35 PM 66.2 °F 41.0 °F 40% 29.83 in 10.0 mi South 9.2 mph - N/A   Clear
10:55 PM 66.2 °F 41.0 °F 40% 29.83 in 10.0 mi South 10.4 mph 20.7 mph N/A   Clear
11:15 PM 66.2 °F 41.0 °F 40% 29.82 in 10.0 mi South 11.5 mph 18.4 mph N/A   Clear
11:35 PM 66.2 °F 41.0 °F 40% 29.82 in 10.0 mi South 11.5 mph 21.9 mph N/A   Clear
11:55 PM 64.4 °F 41.0 °F 42% 29.83 in 10.0 mi South 5.8 mph 19.6 mph N/A   Clear